DW6278 Weather Reports


time (UTC)temp
F
wind
direction
speed
knots
gust
knots
rain 1hr
in
rain 24hr
in
rain mn
in
humidity
%
barometer
mb
20260507163059 65 250 4.3 7.8 0.00 0.00 0.00 57 1016.7
20260507161604 64 157 2.6 7.0 0.00 0.00 0.00 59 1016.6
20260507160058 62 182 4.3 9.6 0.00 0.00 0.00 65 1016.5
20260507154558 61 178 2.6 7.8 0.00 0.00 0.00 64 1016.9
20260507153055 60 210 4.3 8.7 0.00 0.00 0.00 67 1017.0
20260507151556 60 247 3.5 8.7 0.00 0.00 0.00 67 1016.8
20260507150057 60 205 5.2 13.9 0.00 0.00 0.00 67 1016.8
20260507144602 59 217 6.1 10.4 0.00 0.00 0.00 68 1016.6
20260507143114 59 205 6.1 11.3 0.00 0.00 0.00 67 1016.4
20260507141556 60 221 7.8 15.6 0.00 0.00 0.00 66 1016.3
20260507140055 59 200 7.0 13.9 0.00 0.00 0.00 67 1016.1
20260507134556 59 198 7.0 13.9 0.00 0.00 0.00 66 1015.9
20260507133103 58 195 4.3 10.4 0.00 0.00 0.00 69 1015.8
20260507131602 58 213 5.2 8.7 0.00 0.00 0.00 71 1015.7
20260507130058 57 201 5.2 13.0 0.00 0.00 0.00 72 1015.7
20260507124604 56 163 3.5 8.7 0.00 0.00 0.00 74 1015.7
20260507123055 56 64 0.0 2.6 0.00 0.00 0.00 73 1015.5
20260507121556 57 146 1.7 7.0 0.00 0.00 0.00 73 1015.5
20260507120053 56 137 1.7 5.2 0.00 0.00 0.00 73 1015.5
20260507114608 57 82 1.7 5.2 0.00 0.00 0.00 73 1015.5
20260507113117 57 167 4.3 7.0 0.00 0.00 0.00 72 1015.5
20260507111557 58 86 0.9 6.1 0.00 0.00 0.00 70 1015.7
20260507110053 58 141 2.6 6.1 0.00 0.00 0.00 71 1015.7
20260507104549 58 146 1.7 9.6 0.00 0.00 0.00 72 1015.6
20260507103056 58 200 6.1 9.6 0.00 0.00 0.00 73 1015.4
20260507101550 57 182 3.5 7.0 0.00 0.00 0.00 72 1015.6
20260507100057 58 265 1.7 4.3 0.00 0.00 0.00 70 1015.8
20260507094552 59 227 2.6 7.0 0.00 0.00 0.00 69 1015.6
20260507093052 60 201 6.1 9.6 0.00 0.00 0.00 66 1015.6
20260507091622 60 207 5.2 8.7 0.00 0.00 0.00 64 1015.6
20260507090058 60 120 2.6 6.1 0.00 0.00 0.00 63 1015.5
20260507084609 61 162 1.7 7.0 0.00 0.00 0.00 62 1015.5
20260507083052 61 221 2.6 8.7 0.00 0.00 0.00 61 1015.3
20260507081600 61 68 0.9 3.5 0.00 0.00 0.00 60 1015.3
20260507080056 62 225 1.7 7.0 0.00 0.00 0.00 58 1015.0
20260507074559 63 246 3.5 16.5 0.00 0.00 0.00 57 1014.9
20260507073057 62 230 6.1 14.8 0.00 0.00 0.00 58 1014.7
20260507071554 63 185 4.3 7.8 0.00 0.00 0.00 56 1014.7
20260507070052 63 225 3.5 9.6 0.00 0.00 0.00 57 1014.7
20260507064554 63 188 0.9 7.8 0.00 0.00 0.00 56 1014.8
20260507063052 64 162 0.9 2.6 0.00 0.00 0.00 55 1014.7
20260507061553 64 34 1.7 13.0 0.00 0.00 0.00 54 1014.7
20260507054554 65 198 7.8 13.9 0.00 0.00 0.00 52 1014.2
20260507053055 66 223 7.0 14.8 0.00 0.00 0.00 52 1014.3
20260507051554 66 158 6.1 11.3 0.00 0.00 0.00 52 1014.3
20260507050053 66 173 4.3 8.7 0.00 0.00 0.00 53 1014.3
20260507044606 67 207 4.3 7.8 0.00 0.00 0.00 52 1014.3
20260507043109 68 191 5.2 9.6 0.00 0.00 0.00 51 1014.1
20260507041556 68 205 4.3 8.7 0.00 0.00 0.00 52 1013.9
20260507040053 69 192 4.3 10.4 0.00 0.00 0.00 52 1013.7
20260507034557 70 198 5.2 9.6 0.00 0.00 0.00 51 1013.3
20260507033053 72 189 7.0 12.2 0.00 0.00 0.00 47 1013.1
20260507031556 73 171 4.3 10.4 0.00 0.00 0.00 46 1012.8
20260507030056 73 163 7.0 11.3 0.00 0.00 0.00 45 1012.6
20260507024556 74 207 3.5 16.5 0.00 0.00 0.00 46 1012.5
20260507023108 74 232 7.0 20.0 0.00 0.00 0.00 45 1012.3
20260507021555 75 259 5.2 9.6 0.00 0.00 0.00 45 1012.2
20260507020059 75 284 3.5 8.7 0.00 0.00 0.00 46 1011.7
20260507014559 75 201 7.0 14.8 0.00 0.00 0.00 44 1011.5
20260507013050 76 219 7.8 15.6 0.00 0.00 0.00 45 1011.5
20260507011551 77 191 7.8 14.8 0.00 0.00 0.00 45 1011.4
20260507010051 77 221 6.1 13.9 0.00 0.00 0.00 46 1011.6
20260507004552 78 182 4.3 11.3 0.00 0.00 0.00 45 1011.5
20260507003103 78 205 5.2 10.4 0.00 0.00 0.00 46 1011.5
20260507001613 78 205 7.0 15.6 0.00 0.00 0.00 45 1011.4
20260507000052 79 187 7.0 12.2 0.00 0.00 0.00 46 1011.5
20260506234554 80 203 4.3 11.3 0.00 0.00 0.00 47 1011.4
20260506233051 81 192 4.3 10.4 0.00 0.00 0.00 44 1011.5
20260506231604 80 201 7.0 11.3 0.00 0.00 0.00 45 1011.7
20260506230113 81 217 7.8 13.0 0.00 0.00 0.00 44 1011.8
20260506224556 81 207 6.1 13.9 0.00 0.00 0.00 46 1011.9
20260506223052 81 202 7.0 12.2 0.00 0.00 0.00 41 1012.1
20260506221612 81 186 5.2 13.0 0.00 0.00 0.00 43 1012.1
20260506220056 81 248 6.1 12.2 0.00 0.00 0.00 38 1012.3
20260506214554 82 239 6.1 11.3 0.00 0.00 0.00 35 1012.4
20260506213052 81 226 7.8 15.6 0.00 0.00 0.00 34 1012.6
20260506211556 80 237 8.7 13.9 0.00 0.00 0.00 42 1012.9
20260506210059 81 223 7.8 20.9 0.00 0.00 0.00 36 1013.0
20260506204557 81 242 7.0 18.2 0.00 0.00 0.00 33 1012.9
20260506203108 81 233 9.6 17.4 0.00 0.00 0.00 38 1012.9
20260506201558 80 225 8.7 16.5 0.00 0.00 0.00 42 1013.0
20260506200059 80 215 9.6 19.1 0.00 0.00 0.00 47 1013.0
20260506194600 79 195 13.9 19.1 0.00 0.00 0.00 45 1013.0
20260506193104 79 207 11.3 18.2 0.00 0.00 0.00 41 1013.2
20260506191554 79 196 10.4 18.2 0.00 0.00 0.00 45 1013.2
20260506190053 78 175 12.2 20.0 0.00 0.00 0.00 45 1013.5
20260506184554 77 200 13.0 20.0 0.00 0.00 0.00 44 1013.6
20260506183102 76 205 13.0 18.2 0.00 0.00 0.00 45 1013.8
20260506181555 75 191 11.3 19.1 0.00 0.00 0.00 47 1014.1
20260506180057 75 175 9.6 16.5 0.00 0.00 0.00 48 1014.4
20260506174556 74 189 8.7 15.6 0.00 0.00 0.00 51 1014.7
20260506173058 73 223 10.4 16.5 0.00 0.00 0.00 53 1014.7
20260506171553 72 230 6.1 13.0 0.00 0.00 0.00 57 1014.7
20260506170108 71 229 6.1 11.3 0.00 0.00 0.00 56 1014.9
20260506164615 71 227 6.1 13.0 0.00 0.00 0.00 56 1014.8